Orbital Elements at Epoch 2459200.5 (2020-Dec-17.0) TDB
Reference: JPL 36 (heliocentric ecliptic J2000)
Element | Value | Uncertainty (1-sigma) | Units |
e | .2956980770049078 | 1.8106e-08 | |
a | 2.339779501778201 | 6.7329e-09 | au |
q | 1.647911202486886 | 4.373e-08 | au |
i | 21.187831961873 | 6.5295e-07 | deg |
node | 330.4031883977675 | 1.8734e-06 | deg |
peri | 251.9386303911181 | 1.9196e-06 | deg |
M | 312.6497479370983 | 3.5923e-06 | deg |
tp | 2459372.441463600909 (2021-Jun-06.94146360) | 1.3571e-05 | TDB |
period | 1307.256544571262 3.58 | 5.6426e-06 1.545e-08 | d yr |
n | .2753858846566865 | 1.1887e-09 | deg/d |
Q | 3.031647801069516 | 8.7239e-09 | au |
|
| | Orbit Determination Parameters
Additional Information
|